Orbital Elements at Epoch 2459000.5 (2020-May-31.0) TDB
Reference: JPL 8 (heliocentric ecliptic J2000)
Element | Value | Uncertainty (1-sigma) | Units |
e | .09455384043361391 | 6.4022e-08 | |
a | 2.202168128576442 | 2.0643e-08 | au |
q | 1.993944674739035 | 1.4377e-07 | au |
i | 3.176148029754124 | 7.4897e-06 | deg |
node | 38.22502593927784 | 0.00015206 | deg |
peri | 58.41015515103044 | 0.00016432 | deg |
M | 322.6136468987816 | 6.7453e-05 | deg |
tp | 2459124.460905189305 (2020-Oct-01.96090519) | 0.00022492 | TDB |
period | 1193.642122496711 3.27 | 1.6784e-05 4.595e-08 | d yr |
n | .3015979356082016 | 4.2408e-09 | deg/d |
Q | 2.410391582413849 | 2.2595e-08 | au |
|
| | Orbit Determination Parameters
Additional Information
|